Location: La Sioule Rivi�re
(46.3664°N, 3.3197°E)
Time: 12:30:57
(UTC+00:00)

Cosmos 1825 Rocket - Pass Details

Date: 29 October 2020
Orbit: 603 x 631 km, 82.5° (Epoch: 23 November)

Event Time Altitude Azimuth Distance (km) Brightness Sun altitude
Rises 17:07:51 0° 350° (N) 2,926 7.0 -6.1°
Reaches altitude 10° 17:10:06 10° 349° (N) 2,010 6.2 -6.5°
Maximum altitude 17:14:33 82° 263° (W) 635 3.7 -7.2°
Drops below altitude 10° 17:18:56 10° 176° (S) 1,977 6.3 -8.0°
Sets 17:21:08 0° 175° (S) 2,873 7.1 -8.3°
